FALCON 9 DEB (46177 NORAD) Tracking and Keplerian Element Data

This shows tracking and keplerian element data for the satellite.

Feedback or suggestion? Click here.




ElementValue
Catalog46177
NameFALCON 9 DEB
Epoch Orbit419
Epoch Day257.57134337
Epoch Year2020
RAAN306.0052
Inclination52.9793
Eccentricity0.0017736
Argument of Perigee134.3143
Mean Anonmoly225.936
Mean Motion16.39177455
Decay Rate0.05712603
L11 46177U 20057BN 20257.57134337 .05712603 12199-4 42435-3 0 9999
L22 46177 52.9793 306.0052 0017736 134.3143 225.9360 16.39177455 4190

Live tracking and technical data element details for FALCON 9 DEB (NORAD 46177). FALCON 9 DEB can be tracked NOW for your location showing map with azimuth and elevation plus other details from your city location.

Track the satellite on the map from your city or location and see movement details for azimuth, elevation, latitude, longitude, range, height, and movement on the map or in text.







IsCatalogInMostPopularTable: catalog: 46177, numindb: 20
Update: records affected: 1



GetName: 46177 FALCON 9 DEB

Hit Count: updated at: Thu, 03 Dec 2020 08:05:31 GMT